Home   Weather   Aberdeen   Past weeks
Flag for United Kingdom

Past Weather in Aberdeen, Scotland, United Kingdom — Yesterday and Last 2 Weeks

Now
68 °F

Mild.


Feels Like: 68 °F
Forecast: 62 / 58 °F
Wind: 9 mph from East

Location: Aberdeen / Dyce

Current Time: Jul 16, 2019 at 3:36:55 pm

Latest Report: Jul 16, 2019 at 2:20 pm


Visibility: N/A

Pressure: 29.98 "Hg

Humidity: 73%

Dew Point: 59 °F

Location of AberdeenLocation

Past Weather in Aberdeen — Graph

°F

Aberdeen Temperature Yesterday

Maximum temperature yesterday: 64 °F (at 2:20 pm)
Minimum temperature yesterday: 54 °F (at 12:20 am)
Average temperature yesterday: 58 °F

High & Low Weather Summary for the Past Weeks

 TemperatureHumidityPressure
High68 °F (Jul 16, 12:20 pm)100% (Jul 10, 5:50 am)30.30 "Hg (Jul 10, 5:50 am)
Low45 °F (Jul 3, 2:50 am)45% (Jul 8, 6:20 pm)29.74 "Hg (Jul 11, 2:20 pm)
Average57 °F81%30.07 "Hg
* Reported Jul 1 2:20 pm — Jul 16 2:20 pm, Aberdeen. Weather by CustomWeather, © 2019

Note: Actual official high and low records may vary slightly from our data, if they occured in-between our weather recording intervals... More about our weather records

Advertising

Aberdeen Weather History for the Previous 24 Hours

Scroll right to see more
 ConditionsComfort  
Time TempWeatherWind HumidityBarometerVisibility
2:20 pm
Tue, Jul 16
68 °FMild.9 mph73%29.98 "HgN/A
1:50 pm66 °FMild.9 mph73%29.98 "HgN/A
1:20 pm66 °FMild.6 mph73%29.98 "HgN/A
12:50 pm66 °FMild.7 mph78%30.01 "HgN/A
12:20 pm68 °FPassing clouds.6 mph73%30.01 "HgN/A
11:50 am66 °FMild.8 mph78%30.01 "HgN/A
11:20 am66 °FMild.6 mph78%30.01 "HgN/A
10:50 am66 °FMild.5 mph78%30.01 "HgN/A
10:20 am66 °FSunny.2 mph73%30.01 "Hg10 mi
9:50 am66 °FPassing clouds.2 mph73%30.01 "HgN/A
9:20 am63 °FPassing clouds.1 mph83%30.01 "HgN/A
8:50 am63 °FMild.1 mph77%30.01 "HgN/A
8:20 am61 °FCool.2 mph83%30.01 "HgN/A
7:50 am59 °FCool.2 mph88%30.04 "HgN/A
7:20 am57 °FCool.3 mph88%30.04 "HgN/A
6:50 am55 °FCool.3 mph94%30.04 "HgN/A
6:20 am55 °FCool.2 mph94%30.04 "HgN/A
5:50 am54 °FCool.2 mph94%30.04 "HgN/A
5:20 am54 °FCool.2 mph94%30.04 "HgN/A
4:50 am54 °FCool.No wind94%30.04 "HgN/A
4:20 am55 °FCool.1 mph88%30.04 "HgN/A
3:50 am55 °FCool.2 mph88%30.04 "HgN/A
3:20 am55 °FCool.2 mph88%30.04 "HgN/A
2:50 am55 °FCool.1 mph88%30.04 "HgN/A
2:20 am57 °FCool.2 mph82%30.07 "HgN/A
1:50 am55 °FPassing clouds.3 mph94%30.07 "HgN/A
1:20 am55 °FCool.3 mph94%30.07 "HgN/A
12:50 am55 °FCool.5 mph94%30.07 "HgN/A
12:20 am55 °FCool.3 mph94%30.07 "HgN/A
11:50 pm
Mon, Jul 15
55 °FCool.5 mph88%30.09 "HgN/A
11:20 pm55 °FCool.5 mph94%30.09 "HgN/A
10:50 pm57 °FCool.5 mph88%30.09 "HgN/A
10:20 pm57 °FCool.7 mph88%30.09 "HgN/A
9:50 pm57 °FCool.8 mph88%30.09 "HgN/A
9:20 pm57 °FCool.9 mph88%30.09 "HgN/A
8:50 pm59 °FPassing clouds.10 mph82%30.09 "HgN/A
8:20 pm59 °FScattered clouds.10 mph88%30.12 "HgN/A
7:50 pm59 °FScattered clouds.10 mph82%30.12 "HgN/A
7:20 pm61 °FPassing clouds.12 mph83%30.12 "HgN/A
6:50 pm63 °FPassing clouds.8 mph77%30.12 "HgN/A
6:20 pm63 °FPartly sunny.9 mph77%30.12 "HgN/A
5:50 pm63 °FMild.9 mph77%30.12 "HgN/A
5:20 pm63 °FMild.9 mph77%30.12 "HgN/A
4:50 pm63 °FMild.9 mph77%30.12 "HgN/A
4:20 pm63 °FMild.12 mph77%30.15 "HgN/A
3:50 pm63 °FMild.12 mph77%30.15 "HgN/A
3:20 pm64 °FMild.12 mph73%30.15 "HgN/A
Weather by CustomWeather, © 2019

See weather overview

LIVE PARTIAL LUNAR ECLIPSE – Watch the eclipse as it happens